Location: *
(42.3377°N, 71.0868°W)
Time: 02:42:22
(UTC+00:00)

Cosmos 1602 Rocket - Pass Details

Date: 09 April 2020
Orbit: 603 x 634 km, 82.5° (Epoch: 28 May)

Event Time Altitude Azimuth Distance (km) Brightness Sun altitude
Rises 23:39:39 0° 348° (NNW) 2,916 7.4 -4.4°
Reaches altitude 10° 23:41:55 10° 345° (NNW) 2,000 6.6 -4.8°
Maximum altitude 23:46:16 62° 266° (W) 700 4.2 -5.6°
Drops below altitude 10° 23:50:34 10° 185° (S) 1,964 6.0 -6.3°
Sets 23:52:47 0° 182° (S) 2,859 6.8 -6.7°
